Weather in Ichalki

Russia / Nizhny Novgorod Oblast'     55°26′36″N   44°30′10″E
temp.,
°C
wind,
m/s
gust,
m/s
humid.,
%
clouds,
%
prec.,
mm/h
press.,
hPa
HPBL,
m
25 january, tue
tue2500:00−20ese11100100 0.0 103310
03:00−21sse2210062 0.0 103211
06:00−20sse2210059 0.0 103018
09:00−19sse22998 0.0 102919
12:00−11sse2790100 0.0 1026174
15:00−12se229419 0.0 102445
18:00−15sse3596100 0.0 102274
21:00−17sse229884 0.0 102118
26 january, wed
wed2600:00−16sse229874 0.0 101928
03:00−13s279697 0.1 1018162
06:00−13s269697 0.3 1017151
09:00−12s269683 0.4 1017179
12:00−10ssw359395 0.1 1016291
15:00−9ssw249591 0.2 1016289
18:00−12ssw219874 0.2 101715
21:00−12sw2298100 0.3 101754
27 january, thu
thu2700:00−14ssw2299100 0.1 101715
03:00−18ssw2210087 0.1 101814
06:00−15s239883 0.1 101751
09:00−16s259878 0.1 101785
12:00−12ssw379497 0.1 1017288
15:00−11ssw369399 0.1 1016196
18:00−17s2310081 0.0 101733
21:00−18s229960 0.0 101626
28 january, fri
fri2800:00−15sse279768 0.0 1016135
03:00−14sse3896100 0.1 1015142
06:00−15sse269798 0.0 1014101
09:00−13sse3997100 0.0 1013165
12:00−7s51292100 0.0 1012580
15:00−7sse51192100 0.1 1011530
18:00−9sse6129296 0.0 1011379
21:00−9sse51293100 0.0 1010362
29 january, sat
sat2900:00−9sse51293100 0.1 1009366
03:00−9se51194100 0.4 1007385
06:00−9se51095100 0.5 1006358
09:00−8se4995100 1.1 1005318
12:00−6sse4795100 0.6 1004299
15:00−3s2597100 0.9 1004232
18:00−2sw3897100 0.5 1003413
21:00−2sw4896100 1.1 1003351